Regional Weather Roundup
Issued by NWS

Home | Current Version | Previous Version | Text Only | Print | Product List | Glossary On
Versions: 1 2 3 4 5 6 7 8 9 10 11 12 13 14 15 16 17 18 19 20 21 22 23 24 25 26 27 28 29 30 31 32 33 34 35 36 37 38 39 40 41 42 43 44 45 46 47 48 49 50
000
ASUS45 KREV 231510
RWRNV
NEVADA REGIONAL WEATHER ROUNDUP
NATIONAL WEATHER SERVICE RENO NV
800 AM PDT SAT MAY 23 2015

NOTE: "FAIR" INDICATES FEW OR NO CLOUDS BELOW 12,000 FEET WITH NO
SIGNIFICANT WEATHER AND/OR OBSTRUCTIONS TO VISIBILITY.

NVZ001-003-004-231600-
WESTERN NEVADA

CITY           SKY/WX    TMP DP  RH WIND       PRES   REMARKS
RENO           PTSUNNY   55  45  68 N7        30.06R
CARSON CITY    CLOUDY    50  46  87 CALM      30.06R
MINDEN         CLOUDY    50  48  93 CALM      30.07
SLIDE MTN        N/A     34  34 100 NW1         N/A
PYRAMID LAKE     N/A     57 N/A N/A E3          N/A
FALLON         CLOUDY    56  48  74 W8        30.01R
LOVELOCK       LGT RAIN  54  51  90 CALM      30.00R
HAWTHORNE      MOSUNNY   57  48  72 CALM      30.03R
$$

NVZ002-CAZ072-073-231600-
NORTHERN AND CENTRAL SIERRA

CITY           SKY/WX    TMP DP  RH WIND       PRES   REMARKS
S. LAKE TAHOE  CLOUDY    48  42  80 VRB5      30.09S
TRUCKEE        CLOUDY    45  43  93 CALM      30.10R
SQUAW VLY 8000   N/A     36  34  93 W6          N/A
SUSANVILLE     CLOUDY    54  45  71 NW5       30.06S
BLUE CANYON    LGT RAIN  45  42  89 SE3       30.12R FOG
MAMMOTH LAKES  FAIR      45  39  81 W3        30.10S
BRIDGEPORT     CLOUDY    45  39  79 CALM      30.07S
$$

NVZ030-031-036-231600-
NORTHERN NEVADA

CITY           SKY/WX    TMP DP  RH WIND       PRES   REMARKS
ELKO           CLOUDY    51  45  79 SW7       29.97R
WINNEMUCCA     CLOUDY    52  48  86 CALM        N/A
WENDOVER       CLOUDY    52  48  87 SW5       29.91S
$$

NVZ035-037-231600-
CENTRAL NEVADA

CITY           SKY/WX    TMP DP  RH WIND       PRES   REMARKS
ELY            CLOUDY    48  41  76 W8        29.98R
EUREKA           N/A     49  42  77 CALM      30.00R
$$

NVZ013-014-231600-
SOUTH CENTRAL NEVADA

CITY           SKY/WX    TMP DP  RH WIND       PRES   REMARKS
TONOPAH        PTSUNNY   51  42  71 N15G22    30.03R
$$

NVZ017-020-022-231600-
SOUTHERN NEVADA

CITY           SKY/WX    TMP DP  RH WIND       PRES   REMARKS
LAS VEGAS      MOSUNNY   63  42  46 S10       29.91R
N. LAS VEGAS   MOSUNNY   62  40  44 CALM      29.94R
NELLIS AFB     PTSUNNY   64  44  48 S8        29.94R
HENDERSON      CLOUDY    63  43  48 S14       29.97R
MERCURY        PTSUNNY   60  41  49 W8        29.98
$$



USA.gov is the U.S. government's official web portal to all federal, state and local government web resources and services.